Dover FAWN current weather conditions

sailwx.info

Wind from 161 at 2 knots

Air temperature 22.0° C
Dewpoint 21.5° C

Last reported at 2018-Dec-14 19:00 UTC.
Time now 2018-Dec-14 20:02 UTC

Location: N 28°01' W 082°14'.
View on Google Maps.

See reports from other nearby stations

  
Tides and Currents Weather Stations Pressure Air Temp Water Temp Dewpoint Dewpoint Depression Visibility Wind Speed Wind Dir Waves Ship Positions
date/time (UTC)wind fromknots sea level pressurealtimeterstation pressurevisibilityair tempwater tempwave heightnotes
2018-Dec-14 19:00 161 2 22.0
2018-Dec-14 18:45 154 2 22.0
2018-Dec-14 18:30 137 2 21.8
2018-Dec-14 18:15 141 1 21.4
2018-Dec-14 18:00 123 2 21.0
2018-Dec-14 17:45 127 1 20.7
2018-Dec-14 17:30 107 1 20.5
2018-Dec-14 17:15 040 1 20.4
2018-Dec-14 17:00 310 2 20.4
2018-Dec-14 16:45 204 0 20.5
2018-Dec-14 16:30 148 0 20.5
2018-Dec-14 16:15 166 1 20.4
2018-Dec-14 16:00 166 1 20.4
2018-Dec-14 15:45 178 1 20.3
2018-Dec-14 15:30 178 2 20.1
2018-Dec-14 15:15 161 1 20.1
2018-Dec-14 15:00 172 2 20.2
2018-Dec-14 14:45 178 3 20.6
2018-Dec-14 14:30 173 3 21.1
2018-Dec-14 14:15 172 2 21.3
2018-Dec-14 14:00 170 3 21.5
2018-Dec-14 13:45 174 3 21.5
2018-Dec-14 13:30 172 3 21.4
2018-Dec-14 13:15 160 3 21.4
2018-Dec-14 13:00 168 3 21.3
2018-Dec-14 12:45 162 4 21.2
2018-Dec-14 12:30 155 4 21.2
2018-Dec-14 12:15 158 3 21.1
2018-Dec-14 12:00 154 2 20.8
2018-Dec-14 11:45 152 2 20.6
2018-Dec-14 11:30 155 2 20.7
2018-Dec-14 11:15 146 3 20.7
2018-Dec-14 11:00 147 2 20.6
2018-Dec-14 10:45 165 3 20.6
2018-Dec-14 10:30 162 3 20.3
2018-Dec-14 10:15 152 2 20.2
2018-Dec-14 10:00 172 2 20.2
2018-Dec-14 09:45 149 2 20.1
2018-Dec-14 09:30 161 2 20.1
2018-Dec-14 09:15 165 3 20.2
2018-Dec-14 09:00 151 2 20.1
2018-Dec-14 08:45 172 2 20.0
2018-Dec-14 08:30 168 2 19.7
2018-Dec-14 08:15 152 2 19.5
2018-Dec-14 08:00 153 2 19.6
2018-Dec-14 07:45 161 3 19.7
2018-Dec-14 07:30 150 3 19.7
2018-Dec-14 07:15 158 2 19.6
2018-Dec-14 07:00 155 2 19.6
2018-Dec-14 06:45 147 2 19.6
2018-Dec-14 06:30 148 2 19.6
2018-Dec-14 06:15 150 2 19.7
2018-Dec-14 06:00 157 2 19.7
2018-Dec-14 05:45 137 2 19.8
2018-Dec-14 05:30 149 2 19.9
2018-Dec-14 05:15 135 2 19.9
2018-Dec-14 05:00 128 2 19.9
2018-Dec-14 04:45 129 3 20.0
2018-Dec-14 04:30 126 2 20.0
2018-Dec-14 04:15 122 3 20.0
2018-Dec-14 04:00 139 2 20.0
2018-Dec-14 03:45 133 3 19.9
2018-Dec-14 03:30 138 3 20.1
2018-Dec-14 03:15 132 3 20.3
2018-Dec-14 03:00 125 2 20.5
2018-Dec-14 02:45 124 3 20.6
2018-Dec-14 02:30 126 2 20.7
2018-Dec-14 02:15 125 2 20.6
2018-Dec-14 02:00 125 2 20.3
2018-Dec-14 01:45 125 2 20.2
2018-Dec-14 01:30 120 2 20.2
2018-Dec-14 01:15 121 1 20.3
2018-Dec-14 01:00 119 1 20.4
2018-Dec-14 00:45 113 1 20.4
2018-Dec-14 00:30 103 1 20.7
2018-Dec-14 00:15 101 1 20.8
2018-Dec-14 00:00 102 1 20.9
2018-Dec-13 23:45 104 1 21.3
2018-Dec-13 23:30 095 1 21.3
2018-Dec-13 23:15 087 1 21.3
2018-Dec-13 23:00 076 1 21.3
2018-Dec-13 22:45 085 0 21.6
2018-Dec-13 22:30 080 1 21.9
2018-Dec-13 22:15 082 0 22.3
2018-Dec-13 22:00 110 0 22.8
2018-Dec-13 21:45 118 1 23.4
2018-Dec-13 21:30 122 2 23.7
2018-Dec-13 21:15 134 1 23.8
2018-Dec-13 21:00 129 2 24.2
2018-Dec-13 20:45 135 2 24.4
2018-Dec-13 20:30 133 2 25.1
2018-Dec-13 20:15 128 2 24.6
2018-Dec-13 20:00 140 3 25.1
2018-Dec-13 19:45 117 2 24.9
2018-Dec-13 19:30 118 2 24.4
2018-Dec-13 19:15 122 2 24.1
2018-Dec-13 19:00 132 2 23.9
2018-Dec-13 18:45 130 2 23.9
2018-Dec-13 18:30 119 4 24.0
2018-Dec-13 18:15 126 3 24.2
2018-Dec-13 18:00 120 3 23.7
2018-Dec-13 17:45 110 2 23.3
2018-Dec-13 17:30 111 2 22.7
2018-Dec-13 17:15 113 2 22.1
2018-Dec-13 17:00 116 2 22.3
2018-Dec-13 16:45 110 2 22.1
2018-Dec-13 16:30 116 2 22.1
2018-Dec-13 16:15 113 2 22.3
2018-Dec-13 16:00 108 3 22.0
2018-Dec-13 15:45 125 2 22.3
2018-Dec-13 15:30 100 2 21.5
2018-Dec-13 15:15 108 2 20.5
2018-Dec-13 15:00 107 1 19.7
2018-Dec-13 14:45 098 1 18.5
2018-Dec-13 14:30 104 1 17.8
2018-Dec-13 14:15 098 1 17.3
2018-Dec-13 14:00 096 1 16.8
2018-Dec-13 13:45 095 1 16.2
2018-Dec-13 13:30 094 1 15.7
2018-Dec-13 13:15 091 2 15.3
2018-Dec-13 13:00 091 2 15.0
2018-Dec-13 12:45 094 1 14.8
2018-Dec-13 12:30 084 2 14.7
2018-Dec-13 12:15 083 1 14.6
2018-Dec-13 12:00 079 2 14.4
2018-Dec-13 11:45 078 1 14.1
2018-Dec-13 11:30 079 1 13.6
2018-Dec-13 11:15 076 1 13.4
2018-Dec-13 11:00 063 2 13.4
2018-Dec-13 10:45 057 2 13.2
2018-Dec-13 10:30 057 2 13.0
2018-Dec-13 10:15 049 2 12.9
2018-Dec-13 10:00 038 1 12.8
2018-Dec-13 09:45 015 1 12.9
2018-Dec-13 09:30 049 2 12.9
2018-Dec-13 09:15 071 1 12.8
2018-Dec-13 09:00 067 1 12.8
2018-Dec-13 08:45 067 1 12.7
2018-Dec-13 08:30 057 2 12.6
2018-Dec-13 08:15 043 1 12.6
2018-Dec-13 08:00 060 1 12.7
2018-Dec-13 07:45 085 1 12.7
2018-Dec-13 07:30 068 1 12.7
2018-Dec-13 07:15 059 1 12.7
2018-Dec-13 07:00 057 1 12.8
2018-Dec-13 06:45 078 1 12.6
2018-Dec-13 06:30 098 1 12.4
2018-Dec-13 06:15 094 1 12.4
2018-Dec-13 06:00 088 1 12.3
2018-Dec-13 05:45 091 1 12.1
2018-Dec-13 05:30 083 1 12.1
2018-Dec-13 05:15 063 1 12.5
2018-Dec-13 05:00 077 1 13.0
2018-Dec-13 04:45 083 1 13.4
2018-Dec-13 04:30 083 1 13.5
2018-Dec-13 04:15 095 1 13.4
2018-Dec-13 04:00 100 1 13.4
2018-Dec-13 03:45 098 1 13.0
2018-Dec-13 03:30 089 1 12.5
2018-Dec-13 03:15 076 1 12.1
2018-Dec-13 03:00 082 0 12.2
2018-Dec-13 02:45 050 0 12.5
2018-Dec-13 02:30 056 0 12.8
2018-Dec-13 02:15 082 1 13.0
2018-Dec-13 02:00 091 0 13.2
2018-Dec-13 01:45 350 2 13.1
2018-Dec-13 01:30 062 1 12.7
2018-Dec-13 01:15 077 0 12.3
2018-Dec-13 01:00 179 0 12.0
2018-Dec-13 00:45 119 0 11.9
2018-Dec-13 00:30 056 0 11.9
2018-Dec-13 00:15 002 1 12.1
2018-Dec-13 00:00 043 0 12.3
2018-Dec-12 23:45 038 0 13.0
2018-Dec-12 23:30 339 1 13.0
2018-Dec-12 23:15 061 0 13.2
2018-Dec-12 23:00 138 0 13.8
2018-Dec-12 22:45 066 0 14.6
2018-Dec-12 22:30 047 0 15.7
2018-Dec-12 22:15 082 1 16.4
2018-Dec-12 22:00 079 1 17.1
2018-Dec-12 21:45 099 0 17.5
2018-Dec-12 21:30 081 1 17.8
2018-Dec-12 21:15 071 1 18.2
2018-Dec-12 21:00 044 1 18.2
2018-Dec-12 20:45 046 2 18.6
2018-Dec-12 20:30 025 2 19.2
2018-Dec-12 20:15 076 0 18.8
2018-Dec-12 20:00 087 1 19.0